�������l�o���
Date,Time,MP-1(��Sv/h),MP-2(��Sv/h),MP-3(��Sv/h),MP-4(��Sv/h),MP-5(��Sv/h),MP-6(��Sv/h),MP-7(��Sv/h),MP-8(��Sv/h),����,����(m/s),���J
2018/12/02,00:00,0.788,1.196,0.836,1.501,1.082,0.455,0.803,0.762,�k�k��,4.7,��
2018/12/02,00:10,0.788,1.197,0.836,1.503,1.080,0.452,0.804,0.760,�k�k��,5.3,��
2018/12/02,00:20,0.788,1.196,0.835,1.501,1.082,0.455,0.805,0.761,�k�k��,5.8,��
2018/12/02,00:30,0.789,1.196,0.835,1.502,1.081,0.454,0.806,0.763,�k��,5.7,��
2018/12/02,00:40,0.787,1.196,0.835,1.501,1.081,0.454,0.801,0.761,���k��,6.7,��
2018/12/02,00:50,0.789,1.195,0.838,1.498,1.081,0.453,0.802,0.761,���k��,7.0,��
2018/12/02,01:00,0.787,1.196,0.835,1.501,1.081,0.454,0.803,0.763,�k��,7.0,��
2018/12/02,01:10,0.789,1.198,0.835,1.500,1.081,0.455,0.803,0.761,�k��,6.6,��
2018/12/02,01:20,0.788,1.195,0.835,1.500,1.082,0.455,0.803,0.762,���k��,5.6,��
2018/12/02,01:30,0.786,1.196,0.835,1.501,1.080,0.453,0.802,0.763,���k��,4.6,��
2018/12/02,01:40,0.788,1.197,0.837,1.503,1.082,0.453,0.805,0.761,���k��,6.0,��
2018/12/02,01:50,0.788,1.195,0.836,1.501,1.083,0.453,0.804,0.763,���k��,6.5,��
2018/12/02,02:00,0.788,1.193,0.837,1.501,1.079,0.453,0.805,0.762,���k��,5.5,��
2018/12/02,02:10,0.789,1.194,0.836,1.499,1.080,0.454,0.804,0.761,�k��,6.1,��
2018/12/02,02:20,0.786,1.194,0.835,1.501,1.082,0.454,0.803,0.762,�k��,5.5,��
2018/12/02,02:30,0.785,1.195,0.837,1.502,1.081,0.454,0.803,0.763,���k��,5.4,��
2018/12/02,02:40,0.788,1.191,0.836,1.503,1.080,0.453,0.804,0.761,���k��,5.3,��
2018/12/02,02:50,0.787,1.195,0.835,1.500,1.082,0.453,0.803,0.762,���k��,5.0,��
2018/12/02,03:00,0.788,1.193,0.837,1.500,1.081,0.452,0.802,0.762,���k��,4.9,��
2018/12/02,03:10,0.787,1.193,0.837,1.503,1.078,0.454,0.803,0.760,�k��,5.6,��
2018/12/02,03:20,0.788,1.198,0.835,1.503,1.081,0.455,0.802,0.762,�k��,6.2,��
2018/12/02,03:30,0.788,1.196,0.837,1.504,1.080,0.453,0.803,0.762,�k��,7.0,��
2018/12/02,03:40,0.790,1.195,0.837,1.502,1.079,0.453,0.804,0.762,�k��,6.7,��
2018/12/02,03:50,0.787,1.196,0.836,1.500,1.081,0.455,0.804,0.761,�k�k��,4.7,��
2018/12/02,04:00,0.788,1.196,0.835,1.501,1.080,0.453,0.805,0.761,�k��,5.5,��
2018/12/02,04:10,0.787,1.196,0.836,1.501,1.080,0.452,0.806,0.761,�k��,6.5,��
2018/12/02,04:20,0.788,1.195,0.837,1.503,1.081,0.453,0.802,0.761,�k��,7.8,��
2018/12/02,04:30,0.787,1.196,0.838,1.503,1.078,0.454,0.803,0.762,���k��,9.3,��
2018/12/02,04:40,0.789,1.195,0.837,1.501,1.079,0.456,0.803,0.761,���k��,7.0,��
2018/12/02,04:50,0.789,1.194,0.836,1.503,1.082,0.454,0.805,0.760,�k�k��,4.8,��
2018/12/02,05:00,0.788,1.195,0.836,1.500,1.080,0.452,0.805,0.764,�k�k��,6.6,��
2018/12/02,05:10,0.787,1.195,0.835,1.502,1.080,0.453,0.805,0.761,�k�k��,6.4,��
2018/12/02,05:20,0.791,1.194,0.839,1.503,1.080,0.454,0.803,0.762,�k�k��,6.9,��
2018/12/02,05:30,0.788,1.194,0.836,1.506,1.081,0.453,0.803,0.762,�k��,7.4,��
2018/12/02,05:40,0.789,1.195,0.836,1.502,1.079,0.454,0.803,0.760,�k��,7.1,��
2018/12/02,05:50,0.787,1.193,0.837,1.501,1.079,0.453,0.802,0.762,�k��,5.9,��
2018/12/02,06:00,0.789,1.194,0.836,1.502,1.081,0.453,0.804,0.761,�k��,5.3,��
2018/12/02,06:10,0.788,1.195,0.837,1.505,1.081,0.453,0.804,0.761,�k��,4.7,��
2018/12/02,06:20,0.788,1.197,0.838,1.498,1.080,0.454,0.804,0.761,�k��,4.9,��
2018/12/02,06:30,0.786,1.194,0.836,1.500,1.078,0.454,0.805,0.762,�k��,6.2,��
2018/12/02,06:40,0.785,1.196,0.835,1.503,1.081,0.453,0.803,0.761,�k�k��,4.3,��
2018/12/02,06:50,0.787,1.194,0.836,1.502,1.078,0.453,0.805,0.762,�k��,3.4,��
2018/12/02,07:00,0.786,1.196,0.837,1.502,1.078,0.453,0.804,0.760,�k��,3.8,��
2018/12/02,07:10,0.787,1.193,0.837,1.501,1.080,0.454,0.803,0.762,�k��,3.9,��
2018/12/02,07:20,0.787,1.194,0.836,1.499,1.080,0.452,0.803,0.762,���k��,4.1,��
2018/12/02,07:30,0.787,1.194,0.835,1.501,1.081,0.453,0.802,0.763,���k��,3.0,��
2018/12/02,07:40,0.786,1.196,0.837,1.504,1.079,0.453,0.804,0.762,���k��,2.2,��
2018/12/02,07:50,0.788,1.194,0.835,1.501,1.081,0.453,0.803,0.762,��,1.7,��
2018/12/02,08:00,0.789,1.195,0.835,1.501,1.078,0.454,0.803,0.762,�k��,1.7,��
2018/12/02,08:10,0.787,1.195,0.837,1.501,1.081,0.454,0.803,0.761,�k��,1.2,��
2018/12/02,08:20,0.788,1.197,0.838,1.501,1.079,0.453,0.805,0.761,��,0.9,��
2018/12/02,08:30,0.788,1.195,0.836,1.502,1.082,0.453,0.805,0.762,�k��,0.6,��
2018/12/02,08:40,0.787,1.198,0.837,1.501,1.082,0.454,0.807,0.762,�k��,0.9,��
2018/12/02,08:50,0.789,1.195,0.836,1.502,1.081,0.455,0.806,0.762,�k��,0.8,��
2018/12/02,09:00,0.790,1.198,0.837,1.499,1.080,0.455,0.803,0.762,�k��,0.9,��
2018/12/02,09:10,0.790,1.196,0.836,1.501,1.081,0.454,0.806,0.763,�k��,1.2,��
2018/12/02,09:20,0.789,1.198,0.838,1.501,1.081,0.454,0.806,0.762,�k�k��,2.0,��
2018/12/02,09:30,0.790,1.196,0.837,1.502,1.083,0.454,0.805,0.762,�k��,0.9,��
2018/12/02,09:40,0.789,1.195,0.838,1.502,1.083,0.456,0.804,0.763,�k��,1.1,��
2018/12/02,09:50,0.789,1.197,0.838,1.503,1.080,0.454,0.805,0.763,��,1.5,��
2018/12/02,10:00,0.790,1.196,0.837,1.502,1.080,0.454,0.806,0.762,��,2.0,��
2018/12/02,10:10,0.788,1.195,0.840,1.501,1.081,0.455,0.805,0.762,��,1.7,��
2018/12/02,10:20,0.791,1.196,0.839,1.504,1.082,0.455,0.802,0.762,���k��,2.3,��
2018/12/02,10:30,0.791,1.194,0.839,1.504,1.081,0.455,0.803,0.761,��,2.3,��
2018/12/02,10:40,0.789,1.196,0.838,1.502,1.082,0.453,0.803,0.762,���k��,2.0,��
2018/12/02,10:50,0.790,1.198,0.839,1.502,1.082,0.455,0.804,0.761,���쓌,2.8,��
2018/12/02,11:00,0.790,1.194,0.837,1.504,1.084,0.455,0.804,0.762,���쓌,2.0,��
2018/12/02,11:10,0.790,1.194,0.838,1.502,1.085,0.456,0.804,0.762,���쓌,3.0,��
2018/12/02,11:20,0.789,1.194,0.837,1.503,1.085,0.454,0.803,0.763,��,2.6,��
2018/12/02,11:30,0.791,1.198,0.839,1.504,1.084,0.454,0.804,0.763,��,2.8,��
2018/12/02,11:40,0.792,1.196,0.838,1.502,1.084,0.455,0.804,0.763,��,2.0,��
2018/12/02,11:50,0.789,1.198,0.838,1.505,1.087,0.455,0.803,0.763,��,1.9,��
2018/12/02,12:00,0.792,1.196,0.840,1.502,1.085,0.454,0.803,0.763,���k��,2.3,��
2018/12/02,12:10,0.790,1.197,0.839,1.505,1.086,0.455,0.805,0.762,��,2.0,��
2018/12/02,12:20,0.792,1.197,0.839,1.503,1.083,0.456,0.804,0.763,���쓌,2.0,��
2018/12/02,12:30,0.792,1.196,0.838,1.505,1.085,0.456,0.805,0.764,���쓌,2.0,��
2018/12/02,12:40,0.793,1.196,0.838,1.505,1.087,0.455,0.805,0.763,���쓌,3.3,��
2018/12/02,12:50,0.793,1.197,0.840,1.504,1.084,0.455,0.806,0.760,�쓌,2.6,��
2018/12/02,13:00,0.791,1.198,0.841,1.501,1.086,0.455,0.806,0.761,�쓌,2.9,��
2018/12/02,13:10,0.792,1.199,0.842,1.504,1.088,0.458,0.805,0.764,��쓌,3.8,��
2018/12/02,13:20,0.793,1.196,0.841,1.505,1.087,0.457,0.805,0.763,��쓌,3.9,��
2018/12/02,13:30,0.792,1.197,0.840,1.503,1.085,0.456,0.804,0.761,��쓌,4.9,��
2018/12/02,13:40,0.794,1.202,0.841,1.501,1.085,0.457,0.806,0.762,��쓌,5.0,��
2018/12/02,13:50,0.794,1.198,0.842,1.503,1.085,0.455,0.805,0.762,��쓌,4.6,��
2018/12/02,14:00,0.791,1.196,0.841,1.505,1.086,0.458,0.807,0.761,��쓌,5.4,��
2018/12/02,14:10,0.792,1.198,0.840,1.506,1.086,0.457,0.805,0.762,��쓌,6.5,��
2018/12/02,14:20,0.792,1.197,0.839,1.503,1.085,0.457,0.807,0.762,��쓌,6.3,��
2018/12/02,14:30,0.792,1.199,0.839,1.505,1.086,0.458,0.808,0.762,��쓌,6.3,��
2018/12/02,14:40,0.790,1.196,0.840,1.505,1.085,0.456,0.807,0.761,��쓌,7.5,��
2018/12/02,14:50,0.794,1.199,0.840,1.503,1.089,0.458,0.808,0.763,��쓌,6.8,��
2018/12/02,15:00,0.791,1.203,0.840,1.507,1.087,0.456,0.807,0.763,��쓌,7.2,��
2018/12/02,15:10,0.792,1.202,0.841,1.505,1.085,0.455,0.806,0.763,��쓌,6.2,��
2018/12/02,15:20,0.792,1.204,0.839,1.505,1.087,0.457,0.806,0.762,��쓌,7.0,��
2018/12/02,15:30,0.790,1.202,0.840,1.503,1.086,0.456,0.806,0.764,��쓌,5.8,��
2018/12/02,15:40,0.793,1.204,0.840,1.503,1.084,0.458,0.806,0.763,��쓌,6.3,��
2018/12/02,15:50,0.793,1.203,0.843,1.504,1.088,0.457,0.806,0.765,��쓌,7.2,��
2018/12/02,16:00,0.792,1.203,0.841,1.502,1.085,0.457,0.807,0.762,��,6.8,��
2018/12/02,16:10,0.792,1.204,0.838,1.503,1.087,0.457,0.807,0.763,��,6.8,��
2018/12/02,16:20,0.793,1.200,0.841,1.504,1.086,0.457,0.806,0.762,��,8.3,��
2018/12/02,16:30,0.793,1.202,0.840,1.503,1.086,0.459,0.805,0.764,��,7.8,��
2018/12/02,16:40,0.792,1.201,0.840,1.504,1.087,0.458,0.807,0.763,��,7.5,��
2018/12/02,16:50,0.791,1.203,0.839,1.504,1.085,0.457,0.806,0.762,��,6.9,��
2018/12/02,17:00,0.794,1.201,0.840,1.502,1.084,0.456,0.806,0.763,��,5.9,��
2018/12/02,17:10,0.791,1.202,0.841,1.502,1.085,0.457,0.806,0.762,��,5.0,��
2018/12/02,17:20,0.792,1.201,0.837,1.502,1.085,0.457,0.806,0.761,��,5.1,��
2018/12/02,17:30,0.792,1.199,0.838,1.502,1.084,0.458,0.807,0.763,��,5.1,��
2018/12/02,17:40,0.791,1.200,0.838,1.501,1.083,0.457,0.805,0.761,��,5.3,��
2018/12/02,17:50,0.791,1.199,0.839,1.503,1.081,0.456,0.805,0.763,��,5.6,��
2018/12/02,18:00,0.793,1.199,0.839,1.503,1.084,0.457,0.806,0.761,��,7.3,��
2018/12/02,18:10,0.790,1.201,0.839,1.500,1.084,0.457,0.804,0.762,��쐼,7.5,��
2018/12/02,18:20,0.792,1.200,0.841,1.501,1.086,0.457,0.807,0.762,��쐼,7.7,��
2018/12/02,18:30,0.793,1.199,0.839,1.503,1.083,0.457,0.806,0.764,��쐼,8.0,��
2018/12/02,18:40,0.790,1.199,0.839,1.502,1.085,0.455,0.807,0.763,��쐼,6.9,��
2018/12/02,18:50,0.792,1.197,0.837,1.502,1.083,0.457,0.806,0.761,��쐼,7.0,��
2018/12/02,19:00,0.792,1.199,0.839,1.504,1.085,0.457,0.804,0.762,��쐼,8.1,��
2018/12/02,19:10,0.792,1.197,0.839,1.504,1.084,0.456,0.804,0.762,��쐼,8.2,��
2018/12/02,19:20,0.792,1.197,0.841,1.501,1.086,0.458,0.805,0.762,��쐼,7.4,��
2018/12/02,19:30,0.791,1.197,0.840,1.501,1.085,0.456,0.804,0.761,��쐼,7.0,��
2018/12/02,19:40,0.791,1.201,0.841,1.501,1.085,0.455,0.805,0.762,��쐼,7.1,��
2018/12/02,19:50,0.793,1.196,0.838,1.503,1.084,0.455,0.806,0.761,��쐼,5.3,��
2018/12/02,20:00,0.792,1.198,0.840,1.501,1.085,0.456,0.805,0.764,��쐼,5.0,��
2018/12/02,20:10,0.792,1.195,0.840,1.502,1.085,0.455,0.806,0.762,��쐼,7.0,��
2018/12/02,20:20,0.790,1.197,0.840,1.502,1.084,0.454,0.805,0.762,��쐼,6.6,��
2018/12/02,20:30,0.791,1.197,0.839,1.501,1.084,0.455,0.805,0.764,��쐼,6.8,��
2018/12/02,20:40,0.793,1.196,0.840,1.503,1.084,0.456,0.805,0.763,��,6.7,��
2018/12/02,20:50,0.794,1.196,0.839,1.502,1.084,0.456,0.806,0.763,��,7.8,��
2018/12/02,21:00,0.791,1.198,0.838,1.501,1.082,0.455,0.808,0.763,��,8.8,��
2018/12/02,21:10,0.790,1.196,0.839,1.503,1.084,0.456,0.807,0.762,��,7.8,��
2018/12/02,21:20,0.792,1.197,0.841,1.501,1.082,0.456,0.806,0.763,��,6.2,��
2018/12/02,21:30,0.790,1.197,0.840,1.503,1.083,0.457,0.805,0.763,��,6.7,��
2018/12/02,21:40,0.793,1.196,0.839,1.503,1.083,0.458,0.806,0.762,��,7.2,��
2018/12/02,21:50,0.793,1.195,0.840,1.501,1.083,0.457,0.805,0.763,��,7.3,��
2018/12/02,22:00,0.794,1.198,0.841,1.503,1.083,0.456,0.805,0.762,��쐼,5.3,��
2018/12/02,22:10,0.793,1.197,0.841,1.505,1.085,0.456,0.806,0.762,��쐼,5.8,��
2018/12/02,22:20,0.792,1.198,0.840,1.500,1.084,0.454,0.806,0.762,��쐼,6.9,��
2018/12/02,22:30,0.792,1.196,0.840,1.502,1.082,0.455,0.806,0.763,��쐼,6.7,��
2018/12/02,22:40,0.793,1.194,0.840,1.501,1.084,0.457,0.806,0.765,��쐼,5.8,��
2018/12/02,22:50,0.792,1.196,0.840,1.503,1.083,0.457,0.807,0.763,��쐼,5.0,��
2018/12/02,23:00,0.792,1.196,0.840,1.501,1.082,0.455,0.806,0.764,�쐼,3.9,��
2018/12/02,23:10,0.792,1.196,0.840,1.501,1.083,0.456,0.807,0.764,�쐼,4.3,��
2018/12/02,23:20,0.793,1.195,0.840,1.502,1.083,0.458,0.806,0.763,��쐼,5.6,��
2018/12/02,23:30,0.792,1.195,0.840,1.500,1.082,0.455,0.807,0.763,��쐼,5.8,��
2018/12/02,23:40,0.793,1.197,0.840,1.499,1.083,0.457,0.804,0.764,��쐼,5.6,��
2018/12/02,23:50,0.793,1.196,0.839,1.503,1.085,0.456,0.806,0.762,��쐼,4.0,��
